Weather History for Owen Roberts, Cayman Islands

Change the Weather History Date:

Monday, November 12, 2012

  Actual Average Record
Temperature  
Mean Temperature 80 °F -  
Max Temperature 84 °F 83 °F 88 °F (2013)
Min Temperature 77 °F 75 °F 73 °F (2001)
Cooling Degree Days 16    
Growing Degree Days 30 (Base 50)    
Moisture  
Dew Point 70 °F    
Average Humidity 70    
Maximum Humidity 83    
Minimum Humidity 58    
Precipitation  
Precipitation 0.00 in - - ()
Sea Level Pressure  
Sea Level Pressure 30.00 in    
Wind  
Wind Speed 12 mph ()    
Max Wind Speed 16 mph    
Max Gust Speed -    
Visibility 6.2 miles    
Events      
Averages and records for this station are not official NWS values.
T = Trace of Precipitation, MM = Missing Value Source: Averaged Metar Reports

Daily Weather History Graph

Daily Weather History Graph

Search for Another Location

Airport:

Trip Planner

Search our weather history database for the weather conditions in past years. The results will help you decide how hot, cold, wet, or windy it might be!

Date:

Astronomy

Nov. 12, 2012 Rise Set
Actual Time 6:31 AM EST 5:47 PM EST
Civil Twilight 6:08 AM EST 6:10 PM EST
Nautical Twilight 5:42 AM EST 6:36 PM EST
Astronomical Twilight 5:16 AM EST 7:02 PM EST
Moon 5:02 AM EST (11/12) 4:47 PM EST (11/12)
Length of Visible Light 12h 01m
Length of Day
11h 15m
Waning Crescent, 2% of the Moon is Illuminated
Nov 12
Waning Crescent
Nov 13
New
Nov 20
First Quarter
Nov 28
Full
Dec 6
Last Quarter

Hourly Weather History & Observations

Time (EST) Temp. Heat Index Dew Point Humidity Pressure Visibility Wind Dir Wind Speed Gust Speed Precip Events Conditions
6:00 AM 77.0 °F - 69.8 °F 78% 30.01 in 6.2 mi East 12.7 mph - N/A   Partly Cloudy
7:00 AM 77 °F - 71 °F 76% 30.01 in 6 mi ENE 13.8 mph - -   Scattered Clouds
7:00 AM 77.0 °F - 71.6 °F 83% 30.01 in 6.2 mi ENE 13.8 mph - N/A   Partly Cloudy
8:00 AM 78.8 °F - 71.6 °F 78% 30.01 in 6.2 mi ENE 13.8 mph - N/A   Partly Cloudy
9:00 AM 80.6 °F 84.6 °F 71.6 °F 74% 30.04 in 6.2 mi ENE 15.0 mph - N/A   Partly Cloudy
10:00 AM 82.4 °F 86.3 °F 69.8 °F 66% 30.04 in 6.2 mi ENE 16.1 mph - N/A   Partly Cloudy
11:00 AM 82.4 °F 87.2 °F 71.6 °F 70% 30.04 in 6.2 mi ENE 16.1 mph - N/A   Partly Cloudy
12:00 PM 82.4 °F 87.2 °F 71.6 °F 70% 30.01 in 6.2 mi ENE 15.0 mph - N/A   Partly Cloudy
1:00 PM 83 °F - 71 °F 58% 30.01 in 6 mi ENE 13.8 mph - -   Scattered Clouds
1:00 PM 82.4 °F 87.2 °F 71.6 °F 70% 29.98 in 6.2 mi ENE 13.8 mph - N/A   Partly Cloudy
2:00 PM 82.4 °F 86.3 °F 69.8 °F 66% 29.98 in 6.2 mi ENE 13.8 mph - N/A   Partly Cloudy
3:52 PM 82.4 °F 86.3 °F 69.8 °F 66% 29.98 in 6.2 mi ENE 12.7 mph - N/A   Partly Cloudy
5:00 PM 84.2 °F 88.4 °F 69.8 °F 62% 29.95 in 6.2 mi ENE 12.7 mph - N/A   Partly Cloudy
5:50 PM 78.8 °F - 68.0 °F 69% 29.98 in 6.2 mi ENE 11.5 mph - N/A   Partly Cloudy
6:55 PM 78.8 °F - 68.0 °F 69% 29.98 in 6.2 mi ENE 10.4 mph - N/A   Partly Cloudy
7:00 PM 79 °F - 68 °F 62% 29.99 in 6 mi ENE 10.4 mph - -   Scattered Clouds
7:51 PM 78.8 °F - 69.8 °F 74% 30.01 in 6.2 mi ENE 10.4 mph - N/A   Partly Cloudy
8:52 PM 78.8 °F - 68.0 °F 69% 30.01 in 6.2 mi ENE 10.4 mph - N/A   Partly Cloudy
9:50 PM 78.8 °F - 69.8 °F 74% 30.01 in 6.2 mi ENE 10.4 mph - N/A   Partly Cloudy